Year,Month,Day,Hour,Minute,Value (Times are PST for barometer in hPa)
2016,10,14,00,00,983.08
2016,10,14,00,01,983.10
2016,10,14,00,02,983.10
2016,10,14,00,03,983.10
2016,10,14,00,04,983.10
2016,10,14,00,05,983.10
2016,10,14,00,06,983.10
2016,10,14,00,07,983.10
2016,10,14,00,08,983.10
2016,10,14,00,09,983.10
2016,10,14,00,10,983.10
2016,10,14,00,11,983.10
2016,10,14,00,12,983.10
2016,10,14,00,13,983.10
2016,10,14,00,14,983.11
2016,10,14,00,15,983.37
2016,10,14,00,16,983.37
2016,10,14,00,17,983.37
2016,10,14,00,18,983.37
2016,10,14,00,19,983.37
2016,10,14,00,20,983.37
2016,10,14,00,21,983.37
2016,10,14,00,22,983.37
2016,10,14,00,23,983.37
2016,10,14,00,24,983.37
2016,10,14,00,25,983.37
2016,10,14,00,26,983.37
2016,10,14,00,27,983.37
2016,10,14,00,28,983.37
2016,10,14,00,29,983.39
2016,10,14,00,30,983.78
2016,10,14,00,31,983.78
2016,10,14,00,32,983.78
2016,10,14,00,33,983.78
2016,10,14,00,34,983.78
2016,10,14,00,35,983.78
2016,10,14,00,36,983.78
2016,10,14,00,37,983.78
2016,10,14,00,38,983.78
2016,10,14,00,39,983.78
2016,10,14,00,40,983.78
2016,10,14,00,41,983.78
2016,10,14,00,42,983.78
2016,10,14,00,43,983.78
2016,10,14,00,44,983.78
2016,10,14,00,45,984.29
2016,10,14,00,46,984.29
2016,10,14,00,47,984.29
2016,10,14,00,48,984.29
2016,10,14,00,49,984.29
2016,10,14,00,50,984.29
2016,10,14,00,51,984.29
2016,10,14,00,52,984.29
2016,10,14,00,53,984.29
2016,10,14,00,54,984.29
2016,10,14,00,55,984.29
2016,10,14,00,56,984.29
2016,10,14,00,57,984.29
2016,10,14,00,58,984.29
2016,10,14,00,59,984.28
2016,10,14,01,00,984.15
2016,10,14,01,01,984.15
2016,10,14,01,02,984.15
2016,10,14,01,03,984.15
2016,10,14,01,04,984.15
2016,10,14,01,05,984.15
2016,10,14,01,06,984.15
2016,10,14,01,07,984.15
2016,10,14,01,08,984.15
2016,10,14,01,09,984.15
2016,10,14,01,10,984.15
2016,10,14,01,11,984.15
2016,10,14,01,12,984.15
2016,10,14,01,13,984.15
2016,10,14,01,14,984.15
2016,10,14,01,15,984.29
2016,10,14,01,16,984.29
2016,10,14,01,17,984.29
2016,10,14,01,18,984.29
2016,10,14,01,19,984.29
2016,10,14,01,20,984.29
2016,10,14,01,21,984.29
2016,10,14,01,22,984.29
2016,10,14,01,23,984.29
2016,10,14,01,24,984.29
2016,10,14,01,25,984.29
2016,10,14,01,26,984.29
2016,10,14,01,27,984.29
2016,10,14,01,28,984.29
2016,10,14,01,29,984.29
2016,10,14,01,30,984.42
2016,10,14,01,31,984.42
2016,10,14,01,32,984.42
2016,10,14,01,33,984.42
2016,10,14,01,34,984.42
2016,10,14,01,35,984.42
2016,10,14,01,36,984.42
2016,10,14,01,37,984.42
2016,10,14,01,38,984.42
2016,10,14,01,39,984.42
2016,10,14,01,40,984.42
2016,10,14,01,41,984.42
2016,10,14,01,42,984.42
2016,10,14,01,43,984.42
2016,10,14,01,44,984.43
2016,10,14,01,45,984.69
2016,10,14,01,46,984.69
2016,10,14,01,47,984.69
2016,10,14,01,48,984.69
2016,10,14,01,49,984.69
2016,10,14,01,50,984.69
2016,10,14,01,51,984.69
2016,10,14,01,52,984.69
2016,10,14,01,53,984.69
2016,10,14,01,54,984.69
2016,10,14,01,55,984.69
2016,10,14,01,56,984.69
2016,10,14,01,57,984.69
2016,10,14,01,58,984.69
2016,10,14,01,59,984.69
2016,10,14,02,00,985.37
2016,10,14,02,01,985.37
2016,10,14,02,02,985.37
2016,10,14,02,03,985.37
2016,10,14,02,04,985.37
2016,10,14,02,05,985.37
2016,10,14,02,06,985.37
2016,10,14,02,07,985.37
2016,10,14,02,08,985.37
2016,10,14,02,09,985.37
2016,10,14,02,10,985.37
2016,10,14,02,11,985.37
2016,10,14,02,12,985.37
2016,10,14,02,13,985.37
2016,10,14,02,14,985.38
2016,10,14,02,15,985.64
2016,10,14,02,16,985.64
2016,10,14,02,17,985.64
2016,10,14,02,18,985.64
2016,10,14,02,19,985.64
2016,10,14,02,20,985.64
2016,10,14,02,21,985.64
2016,10,14,02,22,985.64
2016,10,14,02,23,985.64
2016,10,14,02,24,985.64
2016,10,14,02,25,985.64
2016,10,14,02,26,985.64
2016,10,14,02,27,985.64
2016,10,14,02,28,985.64
2016,10,14,02,29,985.64
2016,10,14,02,30,985.88
2016,10,14,02,31,985.88
2016,10,14,02,32,985.88
2016,10,14,02,33,985.88
2016,10,14,02,34,985.88
2016,10,14,02,35,985.88
2016,10,14,02,36,985.88
2016,10,14,02,37,985.88
2016,10,14,02,38,985.88
2016,10,14,02,39,985.88
2016,10,14,02,40,985.88
2016,10,14,02,41,985.88
2016,10,14,02,42,985.88
2016,10,14,02,43,985.88
2016,10,14,02,44,985.88
2016,10,14,02,45,985.85
2016,10,14,02,46,985.85
2016,10,14,02,47,985.85
2016,10,14,02,48,985.85
2016,10,14,02,49,985.85
2016,10,14,02,50,985.85
2016,10,14,02,51,985.85
2016,10,14,02,52,985.85
2016,10,14,02,53,985.85
2016,10,14,02,54,985.85
2016,10,14,02,55,985.85
2016,10,14,02,56,985.85
2016,10,14,02,57,985.85
2016,10,14,02,58,985.85
2016,10,14,02,59,985.85
2016,10,14,03,00,986.02
2016,10,14,03,01,986.02
2016,10,14,03,02,986.02
2016,10,14,03,03,986.02
2016,10,14,03,04,986.02
2016,10,14,03,05,986.02
2016,10,14,03,06,986.02
2016,10,14,03,07,986.02
2016,10,14,03,08,986.02
2016,10,14,03,09,986.02
2016,10,14,03,10,986.02
2016,10,14,03,11,986.02
2016,10,14,03,12,986.02
2016,10,14,03,13,986.02
2016,10,14,03,14,986.02
2016,10,14,03,15,985.95
2016,10,14,03,16,985.95
2016,10,14,03,17,985.95
2016,10,14,03,18,985.95
2016,10,14,03,19,985.95
2016,10,14,03,20,985.95
2016,10,14,03,21,985.95
2016,10,14,03,22,985.95
2016,10,14,03,23,985.95
2016,10,14,03,24,985.95
2016,10,14,03,25,985.95
2016,10,14,03,26,985.95
2016,10,14,03,27,985.95
2016,10,14,03,28,985.95
2016,10,14,03,29,985.97
2016,10,14,03,30,986.42
2016,10,14,03,31,986.42
2016,10,14,03,32,986.42
2016,10,14,03,33,986.42
2016,10,14,03,34,986.42
2016,10,14,03,35,986.42
2016,10,14,03,36,986.42
2016,10,14,03,37,986.42
2016,10,14,03,38,986.42
2016,10,14,03,39,986.42
2016,10,14,03,40,986.42
2016,10,14,03,41,986.42
2016,10,14,03,42,986.42
2016,10,14,03,43,986.42
2016,10,14,03,44,986.42
2016,10,14,03,45,986.73
2016,10,14,03,46,986.73
2016,10,14,03,47,986.73
2016,10,14,03,48,986.73
2016,10,14,03,49,986.73
2016,10,14,03,50,986.73
2016,10,14,03,51,986.73
2016,10,14,03,52,986.73
2016,10,14,03,53,986.73
2016,10,14,03,54,986.73
2016,10,14,03,55,986.73
2016,10,14,03,56,986.73
2016,10,14,03,57,986.73
2016,10,14,03,58,986.73
2016,10,14,03,59,986.72
2016,10,14,04,00,986.46
2016,10,14,04,01,986.46
2016,10,14,04,02,986.46
2016,10,14,04,03,986.46
2016,10,14,04,04,986.46
2016,10,14,04,05,986.46
2016,10,14,04,06,986.46
2016,10,14,04,07,986.46
2016,10,14,04,08,986.46
2016,10,14,04,09,986.46
2016,10,14,04,10,986.46
2016,10,14,04,11,986.46
2016,10,14,04,12,986.46
2016,10,14,04,13,986.46
2016,10,14,04,14,986.46
2016,10,14,04,15,986.76
2016,10,14,04,16,986.76
2016,10,14,04,17,986.76
2016,10,14,04,18,986.76
2016,10,14,04,19,986.76
2016,10,14,04,20,986.76
2016,10,14,04,21,986.76
2016,10,14,04,22,986.76
2016,10,14,04,23,986.76
2016,10,14,04,24,986.76
2016,10,14,04,25,986.76
2016,10,14,04,26,986.76
2016,10,14,04,27,986.76
2016,10,14,04,28,986.76
2016,10,14,04,29,986.76
2016,10,14,04,30,986.52
2016,10,14,04,31,986.52
2016,10,14,04,32,986.52
2016,10,14,04,33,986.52
2016,10,14,04,34,986.52
2016,10,14,04,35,986.52
2016,10,14,04,36,986.52
2016,10,14,04,37,986.52
2016,10,14,04,38,986.52
2016,10,14,04,39,986.52
2016,10,14,04,40,986.52
2016,10,14,04,41,986.52
2016,10,14,04,42,986.52
2016,10,14,04,43,986.52
2016,10,14,04,44,986.52
2016,10,14,04,45,986.56
2016,10,14,04,46,986.56
2016,10,14,04,47,986.56
2016,10,14,04,48,986.56
2016,10,14,04,49,986.56
2016,10,14,04,50,986.56
2016,10,14,04,51,986.56
2016,10,14,04,52,986.56
2016,10,14,04,53,986.56
2016,10,14,04,54,986.56
2016,10,14,04,55,986.56
2016,10,14,04,56,986.56
2016,10,14,04,57,986.56
2016,10,14,04,58,986.56
2016,10,14,04,59,986.56
2016,10,14,05,00,985.98
2016,10,14,05,01,985.98
2016,10,14,05,02,985.98
2016,10,14,05,03,985.98
2016,10,14,05,04,985.98
2016,10,14,05,05,985.98
2016,10,14,05,06,985.98
2016,10,14,05,07,985.98
2016,10,14,05,08,985.98
2016,10,14,05,09,985.98
2016,10,14,05,10,985.98
2016,10,14,05,11,985.98
2016,10,14,05,12,985.98
2016,10,14,05,13,985.98
2016,10,14,05,14,985.98
2016,10,14,05,15,985.95
2016,10,14,05,16,985.95
2016,10,14,05,17,985.95
2016,10,14,05,18,985.95
2016,10,14,05,19,985.95
2016,10,14,05,20,985.95
2016,10,14,05,21,985.95
2016,10,14,05,22,985.95
2016,10,14,05,23,985.95
2016,10,14,05,24,985.95
2016,10,14,05,25,985.95
2016,10,14,05,26,985.95
2016,10,14,05,27,985.95
2016,10,14,05,28,985.95
2016,10,14,05,29,985.95
2016,10,14,05,30,985.95
2016,10,14,05,31,985.95
2016,10,14,05,32,985.95
2016,10,14,05,33,985.95
2016,10,14,05,34,985.95
2016,10,14,05,35,985.95
2016,10,14,05,36,985.95
2016,10,14,05,37,985.95
2016,10,14,05,38,985.95
2016,10,14,05,39,985.95
2016,10,14,05,40,985.95
2016,10,14,05,41,985.95
2016,10,14,05,42,985.95
2016,10,14,05,43,985.95
2016,10,14,05,44,985.95
2016,10,14,05,45,985.95
2016,10,14,05,46,985.95
2016,10,14,05,47,985.95
2016,10,14,05,48,985.95
2016,10,14,05,49,985.95
2016,10,14,05,50,985.95
2016,10,14,05,51,985.95
2016,10,14,05,52,985.95
2016,10,14,05,53,985.95
2016,10,14,05,54,985.95
2016,10,14,05,55,985.95
2016,10,14,05,56,985.95
2016,10,14,05,57,985.95
2016,10,14,05,58,985.95
2016,10,14,05,59,985.95
2016,10,14,06,00,985.91
2016,10,14,06,01,985.91
2016,10,14,06,02,985.91
2016,10,14,06,03,985.91
2016,10,14,06,04,985.91
2016,10,14,06,05,985.91
2016,10,14,06,06,985.91
2016,10,14,06,07,985.91
2016,10,14,06,08,985.91
2016,10,14,06,09,985.91
2016,10,14,06,10,985.91
2016,10,14,06,11,985.91
2016,10,14,06,12,985.91
2016,10,14,06,13,985.91
2016,10,14,06,14,985.91
2016,10,14,06,15,986.32
2016,10,14,06,16,986.32
2016,10,14,06,17,986.32
2016,10,14,06,18,986.32
2016,10,14,06,19,986.32
2016,10,14,06,20,986.32
2016,10,14,06,21,986.32
2016,10,14,06,22,986.32
2016,10,14,06,23,986.32
2016,10,14,06,24,986.32
2016,10,14,06,25,986.32
2016,10,14,06,26,986.32
2016,10,14,06,27,986.32
2016,10,14,06,28,986.32
2016,10,14,06,29,986.32
2016,10,14,06,30,985.88
2016,10,14,06,31,985.88
2016,10,14,06,32,985.88
2016,10,14,06,33,985.88
2016,10,14,06,34,985.88
2016,10,14,06,35,985.88
2016,10,14,06,36,985.88
2016,10,14,06,37,985.88
2016,10,14,06,38,985.88
2016,10,14,06,39,985.88
2016,10,14,06,40,985.88
2016,10,14,06,41,985.88
2016,10,14,06,42,985.88
2016,10,14,06,43,985.88
2016,10,14,06,44,985.88
2016,10,14,06,45,985.51
2016,10,14,06,46,985.51
2016,10,14,06,47,985.51
2016,10,14,06,48,985.51
2016,10,14,06,49,985.51
2016,10,14,06,50,985.51
2016,10,14,06,51,985.51
2016,10,14,06,52,985.51
2016,10,14,06,53,985.51
2016,10,14,06,54,985.51
2016,10,14,06,55,985.51
2016,10,14,06,56,985.51
2016,10,14,06,57,985.51
2016,10,14,06,58,985.51
2016,10,14,06,59,985.51
2016,10,14,07,00,985.57
2016,10,14,07,01,985.57
2016,10,14,07,02,985.57
2016,10,14,07,03,985.57
2016,10,14,07,04,985.57
2016,10,14,07,05,985.57
2016,10,14,07,06,985.57
2016,10,14,07,07,985.57
2016,10,14,07,08,985.57
2016,10,14,07,09,985.57
2016,10,14,07,10,985.57
2016,10,14,07,11,985.57
2016,10,14,07,12,985.57
2016,10,14,07,13,985.57
2016,10,14,07,14,985.57
2016,10,14,07,15,985.42
2016,10,14,07,16,985.41
2016,10,14,07,17,985.41
2016,10,14,07,18,985.41
2016,10,14,07,19,985.41
2016,10,14,07,20,985.41
2016,10,14,07,21,985.41
2016,10,14,07,22,985.41
2016,10,14,07,23,985.41
2016,10,14,07,24,985.41
2016,10,14,07,25,985.41
2016,10,14,07,26,985.41
2016,10,14,07,27,985.41
2016,10,14,07,28,985.41
2016,10,14,07,29,985.41
2016,10,14,07,30,985.44
2016,10,14,07,31,985.44
2016,10,14,07,32,985.44
2016,10,14,07,33,985.44
2016,10,14,07,34,985.44
2016,10,14,07,35,985.44
2016,10,14,07,36,985.44
2016,10,14,07,37,985.44
2016,10,14,07,38,985.44
2016,10,14,07,39,985.44
2016,10,14,07,40,985.44
2016,10,14,07,41,985.44
2016,10,14,07,42,985.44
2016,10,14,07,43,985.44
2016,10,14,07,44,985.44
2016,10,14,07,45,985.86
2016,10,14,07,46,985.88
2016,10,14,07,47,985.88
2016,10,14,07,48,985.88
2016,10,14,07,49,985.88
2016,10,14,07,50,985.88
2016,10,14,07,51,985.88
2016,10,14,07,52,985.88
2016,10,14,07,53,985.88
2016,10,14,07,54,985.88
2016,10,14,07,55,985.88
2016,10,14,07,56,985.88
2016,10,14,07,57,985.88
2016,10,14,07,58,985.88
2016,10,14,07,59,985.88
2016,10,14,08,00,986.42
2016,10,14,08,01,986.42
2016,10,14,08,02,986.42
2016,10,14,08,03,986.42
2016,10,14,08,04,986.42
2016,10,14,08,05,986.42
2016,10,14,08,06,986.42
2016,10,14,08,07,986.42
2016,10,14,08,08,986.42
2016,10,14,08,09,986.42
2016,10,14,08,10,986.42
2016,10,14,08,11,986.42
2016,10,14,08,12,986.42
2016,10,14,08,13,986.42
2016,10,14,08,14,986.42
2016,10,14,08,15,985.95
2016,10,14,08,16,985.95
2016,10,14,08,17,985.95
2016,10,14,08,18,985.95
2016,10,14,08,19,985.95
2016,10,14,08,20,985.95
2016,10,14,08,21,985.95
2016,10,14,08,22,985.95
2016,10,14,08,23,985.95
2016,10,14,08,24,985.95
2016,10,14,08,25,985.95
2016,10,14,08,26,985.95
2016,10,14,08,27,985.95
2016,10,14,08,28,985.95
2016,10,14,08,29,985.95
2016,10,14,08,30,986.02
2016,10,14,08,31,986.02
2016,10,14,08,32,986.02
2016,10,14,08,33,986.02
2016,10,14,08,34,986.02
2016,10,14,08,35,986.02
2016,10,14,08,36,986.02
2016,10,14,08,37,986.02
2016,10,14,08,38,986.02
2016,10,14,08,39,986.02
2016,10,14,08,40,986.02
2016,10,14,08,41,986.02
2016,10,14,08,42,986.02
2016,10,14,08,43,986.02
2016,10,14,08,44,986.02
2016,10,14,08,45,986.05
2016,10,14,08,46,986.05
2016,10,14,08,47,986.05
2016,10,14,08,48,986.05
2016,10,14,08,49,986.05
2016,10,14,08,50,986.05
2016,10,14,08,51,986.05
2016,10,14,08,52,986.05
2016,10,14,08,53,986.05
2016,10,14,08,54,986.05
2016,10,14,08,55,986.05
2016,10,14,08,56,986.05
2016,10,14,08,57,986.05
2016,10,14,08,58,986.05
2016,10,14,08,59,986.05
2016,10,14,09,00,985.74
2016,10,14,09,01,985.74
2016,10,14,09,02,985.74
2016,10,14,09,03,985.74
2016,10,14,09,04,985.74
2016,10,14,09,05,985.74
2016,10,14,09,06,985.74
2016,10,14,09,07,985.74
2016,10,14,09,08,985.74
2016,10,14,09,09,985.74
2016,10,14,09,10,985.74
2016,10,14,09,11,985.74
2016,10,14,09,12,985.74
2016,10,14,09,13,985.74
2016,10,14,09,14,985.74
2016,10,14,09,15,985.41
2016,10,14,09,16,985.41
2016,10,14,09,17,985.41
2016,10,14,09,18,985.41
2016,10,14,09,19,985.41
2016,10,14,09,20,985.41
2016,10,14,09,21,985.41
2016,10,14,09,22,985.41
2016,10,14,09,23,985.41
2016,10,14,09,24,985.41
2016,10,14,09,25,985.41
2016,10,14,09,26,985.41
2016,10,14,09,27,985.41
2016,10,14,09,28,985.41
2016,10,14,09,29,985.41
2016,10,14,09,30,985.47
2016,10,14,09,31,985.47
2016,10,14,09,32,985.47
2016,10,14,09,33,985.47
2016,10,14,09,34,985.47
2016,10,14,09,35,985.47
2016,10,14,09,36,985.47
2016,10,14,09,37,985.47
2016,10,14,09,38,985.47
2016,10,14,09,39,985.47
2016,10,14,09,40,985.47
2016,10,14,09,41,985.47
2016,10,14,09,42,985.47
2016,10,14,09,43,985.47
2016,10,14,09,44,985.47
2016,10,14,09,45,985.57
2016,10,14,09,46,985.57
2016,10,14,09,47,985.57
2016,10,14,09,48,985.57
2016,10,14,09,49,985.57
2016,10,14,09,50,985.57
2016,10,14,09,51,985.57
2016,10,14,09,52,985.57
2016,10,14,09,53,985.57
2016,10,14,09,54,985.57
2016,10,14,09,55,985.57
2016,10,14,09,56,985.57
2016,10,14,09,57,985.57
2016,10,14,09,58,985.57
2016,10,14,09,59,985.57
2016,10,14,10,00,985.68
2016,10,14,10,01,985.68
2016,10,14,10,02,985.68
2016,10,14,10,03,985.68
2016,10,14,10,04,985.68
2016,10,14,10,05,985.68
2016,10,14,10,06,985.68
2016,10,14,10,07,985.68
2016,10,14,10,08,985.68
2016,10,14,10,09,985.68
2016,10,14,10,10,985.68
2016,10,14,10,11,985.68
2016,10,14,10,12,985.68
2016,10,14,10,13,985.68
2016,10,14,10,14,985.68
2016,10,14,10,15,984.90
2016,10,14,10,16,984.90
2016,10,14,10,17,984.90
2016,10,14,10,18,984.90
2016,10,14,10,19,984.90
2016,10,14,10,20,984.90
2016,10,14,10,21,984.90
2016,10,14,10,22,984.90
2016,10,14,10,23,984.90
2016,10,14,10,24,984.90
2016,10,14,10,25,984.90
2016,10,14,10,26,984.90
2016,10,14,10,27,984.90
2016,10,14,10,28,984.90
2016,10,14,10,29,984.90
2016,10,14,10,30,984.90
2016,10,14,10,31,984.90
2016,10,14,10,32,984.90
2016,10,14,10,33,984.90
2016,10,14,10,34,984.90
2016,10,14,10,35,984.90
2016,10,14,10,36,984.90
2016,10,14,10,37,984.90
2016,10,14,10,38,984.90
2016,10,14,10,39,984.90
2016,10,14,10,40,984.90
2016,10,14,10,41,984.90
2016,10,14,10,42,984.90
2016,10,14,10,43,984.90
2016,10,14,10,44,984.90
2016,10,14,10,45,984.86
2016,10,14,10,46,984.86
2016,10,14,10,47,984.86
2016,10,14,10,48,984.86
2016,10,14,10,49,984.86
2016,10,14,10,50,984.86
2016,10,14,10,51,984.86
2016,10,14,10,52,984.86
2016,10,14,10,53,984.86
2016,10,14,10,54,984.86
2016,10,14,10,55,984.86
2016,10,14,10,56,984.86
2016,10,14,10,57,984.86
2016,10,14,10,58,984.86
2016,10,14,10,59,984.86
2016,10,14,11,00,984.32
2016,10,14,11,01,984.32
2016,10,14,11,02,984.32
2016,10,14,11,03,984.32
2016,10,14,11,04,984.32
2016,10,14,11,05,984.32
2016,10,14,11,06,984.32
2016,10,14,11,07,984.32
2016,10,14,11,08,984.32
2016,10,14,11,09,984.32
2016,10,14,11,10,984.32
2016,10,14,11,11,984.32
2016,10,14,11,12,984.32
2016,10,14,11,13,984.32
2016,10,14,11,14,984.32
2016,10,14,11,15,984.29
2016,10,14,11,16,984.29
2016,10,14,11,17,984.29
2016,10,14,11,18,984.29
2016,10,14,11,19,984.29
2016,10,14,11,20,984.29
2016,10,14,11,21,984.29
2016,10,14,11,22,984.29
2016,10,14,11,23,984.29
2016,10,14,11,24,984.29
2016,10,14,11,25,984.29
2016,10,14,11,26,984.29
2016,10,14,11,27,984.29
2016,10,14,11,28,984.29
2016,10,14,11,29,984.29
2016,10,14,11,30,984.29
2016,10,14,11,31,984.29
2016,10,14,11,32,984.29
2016,10,14,11,33,984.29
2016,10,14,11,34,984.29
2016,10,14,11,35,984.29
2016,10,14,11,36,984.29
2016,10,14,11,37,984.29
2016,10,14,11,38,984.29
2016,10,14,11,39,984.29
2016,10,14,11,40,984.29
2016,10,14,11,41,984.29
2016,10,14,11,42,984.29
2016,10,14,11,43,984.29
2016,10,14,11,44,984.29
2016,10,14,11,45,984.48
2016,10,14,11,46,984.49
2016,10,14,11,47,984.49
2016,10,14,11,48,984.49
2016,10,14,11,49,984.49
2016,10,14,11,50,984.49
2016,10,14,11,51,984.49
2016,10,14,11,52,984.49
2016,10,14,11,53,984.49
2016,10,14,11,54,984.49
2016,10,14,11,55,984.49
2016,10,14,11,56,984.49
2016,10,14,11,57,984.49
2016,10,14,11,58,984.49
2016,10,14,11,59,984.49
2016,10,14,12,00,984.36
2016,10,14,12,01,984.36
2016,10,14,12,02,984.36
2016,10,14,12,03,984.36
2016,10,14,12,04,984.36
2016,10,14,12,05,984.36
2016,10,14,12,06,984.36
2016,10,14,12,07,984.36
2016,10,14,12,08,984.36
2016,10,14,12,09,984.36
2016,10,14,12,10,984.36
2016,10,14,12,11,984.36
2016,10,14,12,12,984.36
2016,10,14,12,13,984.36
2016,10,14,12,14,984.36
2016,10,14,12,15,984.36
2016,10,14,12,16,984.36
2016,10,14,12,17,984.36
2016,10,14,12,18,984.36
2016,10,14,12,19,984.36
2016,10,14,12,20,984.36
2016,10,14,12,21,984.36
2016,10,14,12,22,984.36
2016,10,14,12,23,984.36
2016,10,14,12,24,984.36
2016,10,14,12,25,984.36
2016,10,14,12,26,984.36
2016,10,14,12,27,984.36
2016,10,14,12,28,984.36
2016,10,14,12,29,984.36
2016,10,14,12,30,984.05
2016,10,14,12,31,984.05
2016,10,14,12,32,984.05
2016,10,14,12,33,984.05
2016,10,14,12,34,984.05
2016,10,14,12,35,984.05
2016,10,14,12,36,984.05
2016,10,14,12,37,984.05
2016,10,14,12,38,984.05
2016,10,14,12,39,984.05
2016,10,14,12,40,984.05
2016,10,14,12,41,984.05
2016,10,14,12,42,984.05
2016,10,14,12,43,984.05
2016,10,14,12,44,984.05
2016,10,14,12,45,984.34
2016,10,14,12,46,984.36
2016,10,14,12,47,984.36
2016,10,14,12,48,984.36
2016,10,14,12,49,984.36
2016,10,14,12,50,984.36
2016,10,14,12,51,984.36
2016,10,14,12,52,984.36
2016,10,14,12,53,984.36
2016,10,14,12,54,984.36
2016,10,14,12,55,984.36
2016,10,14,12,56,984.36
2016,10,14,12,57,984.36
2016,10,14,12,58,984.36
2016,10,14,12,59,984.36
2016,10,14,13,00,984.08
2016,10,14,13,01,984.08
2016,10,14,13,02,984.08
2016,10,14,13,03,984.08
2016,10,14,13,04,984.08
2016,10,14,13,05,984.08
2016,10,14,13,06,984.08
2016,10,14,13,07,984.08
2016,10,14,13,08,984.08
2016,10,14,13,09,984.08
2016,10,14,13,10,984.08
2016,10,14,13,11,984.08
2016,10,14,13,12,984.08
2016,10,14,13,13,984.08
2016,10,14,13,14,984.08
2016,10,14,13,15,983.88
2016,10,14,13,16,983.88
2016,10,14,13,17,983.88
2016,10,14,13,18,983.88
2016,10,14,13,19,983.88
2016,10,14,13,20,983.88
2016,10,14,13,21,983.88
2016,10,14,13,22,983.88
2016,10,14,13,23,983.88
2016,10,14,13,24,983.88
2016,10,14,13,25,983.88
2016,10,14,13,26,983.88
2016,10,14,13,27,983.88
2016,10,14,13,28,983.88
2016,10,14,13,29,983.88
2016,10,14,13,30,984.42
2016,10,14,13,31,984.42
2016,10,14,13,32,984.42
2016,10,14,13,33,984.42
2016,10,14,13,34,984.42
2016,10,14,13,35,984.42
2016,10,14,13,36,984.42
2016,10,14,13,37,984.42
2016,10,14,13,38,984.42
2016,10,14,13,39,984.42
2016,10,14,13,40,984.42
2016,10,14,13,41,984.42
2016,10,14,13,42,984.42
2016,10,14,13,43,984.42
2016,10,14,13,44,984.42
2016,10,14,13,45,984.93
2016,10,14,13,46,984.93
2016,10,14,13,47,984.93
2016,10,14,13,48,984.93
2016,10,14,13,49,984.93
2016,10,14,13,50,984.93
2016,10,14,13,51,984.93
2016,10,14,13,52,984.93
2016,10,14,13,53,984.93
2016,10,14,13,54,984.93
2016,10,14,13,55,984.93
2016,10,14,13,56,984.93
2016,10,14,13,57,984.93
2016,10,14,13,58,984.93
2016,10,14,13,59,984.93
2016,10,14,14,00,985.39
2016,10,14,14,01,985.41
2016,10,14,14,02,985.41
2016,10,14,14,03,985.41
2016,10,14,14,04,985.41
2016,10,14,14,05,985.41
2016,10,14,14,06,985.41
2016,10,14,14,07,985.41
2016,10,14,14,08,985.41
2016,10,14,14,09,985.41
2016,10,14,14,10,985.41
2016,10,14,14,11,985.41
2016,10,14,14,12,985.41
2016,10,14,14,13,985.41
2016,10,14,14,14,985.41
2016,10,14,14,15,985.79
2016,10,14,14,16,985.81
2016,10,14,14,17,985.81
2016,10,14,14,18,985.81
2016,10,14,14,19,985.81
2016,10,14,14,20,985.81
2016,10,14,14,21,985.81
2016,10,14,14,22,985.81
2016,10,14,14,23,985.81
2016,10,14,14,24,985.81
2016,10,14,14,25,985.81
2016,10,14,14,26,985.81
2016,10,14,14,27,985.81
2016,10,14,14,28,985.81
2016,10,14,14,29,985.81
2016,10,14,14,30,986.79
2016,10,14,14,31,986.79
2016,10,14,14,32,986.79
2016,10,14,14,33,986.79
2016,10,14,14,34,986.79
2016,10,14,14,35,986.79
2016,10,14,14,36,986.79
2016,10,14,14,37,986.79
2016,10,14,14,38,986.79
2016,10,14,14,39,986.79
2016,10,14,14,40,986.79
2016,10,14,14,41,986.79
2016,10,14,14,42,986.79
2016,10,14,14,43,986.79
2016,10,14,14,44,986.79
2016,10,14,14,45,987.40
2016,10,14,14,46,987.40
2016,10,14,14,47,987.40
2016,10,14,14,48,987.40
2016,10,14,14,49,987.40
2016,10,14,14,50,987.40
2016,10,14,14,51,987.40
2016,10,14,14,52,987.40
2016,10,14,14,53,987.40
2016,10,14,14,54,987.40
2016,10,14,14,55,987.40
2016,10,14,14,56,987.40
2016,10,14,14,57,987.40
2016,10,14,14,58,987.40
2016,10,14,14,59,987.40
2016,10,14,15,00,987.82
2016,10,14,15,01,987.84
2016,10,14,15,02,987.84
2016,10,14,15,03,987.84
2016,10,14,15,04,987.84
2016,10,14,15,05,987.84
2016,10,14,15,06,987.84
2016,10,14,15,07,987.84
2016,10,14,15,08,987.84
2016,10,14,15,09,987.84
2016,10,14,15,10,987.84
2016,10,14,15,11,987.84
2016,10,14,15,12,987.84
2016,10,14,15,13,987.84
2016,10,14,15,14,987.84
2016,10,14,15,15,988.49
2016,10,14,15,16,988.52
2016,10,14,15,17,988.52
2016,10,14,15,18,988.52
2016,10,14,15,19,988.52
2016,10,14,15,20,988.52
2016,10,14,15,21,988.52
2016,10,14,15,22,988.52
2016,10,14,15,23,988.52
2016,10,14,15,24,988.52
2016,10,14,15,25,988.52
2016,10,14,15,26,988.52
2016,10,14,15,27,988.52
2016,10,14,15,28,988.52
2016,10,14,15,29,988.52
2016,10,14,15,30,989.03
2016,10,14,15,31,989.03
2016,10,14,15,32,989.03
2016,10,14,15,33,989.03
2016,10,14,15,34,989.03
2016,10,14,15,35,989.03
2016,10,14,15,36,989.03
2016,10,14,15,37,989.03
2016,10,14,15,38,989.03
2016,10,14,15,39,989.03
2016,10,14,15,40,989.03
2016,10,14,15,41,989.03
2016,10,14,15,42,989.03
2016,10,14,15,43,989.03
2016,10,14,15,44,989.03
2016,10,14,15,45,989.45
2016,10,14,15,46,989.47
2016,10,14,15,47,989.47
2016,10,14,15,48,989.47
2016,10,14,15,49,989.47
2016,10,14,15,50,989.47
2016,10,14,15,51,989.47
2016,10,14,15,52,989.47
2016,10,14,15,53,989.47
2016,10,14,15,54,989.47
2016,10,14,15,55,989.47
2016,10,14,15,56,989.47
2016,10,14,15,57,989.47
2016,10,14,15,58,989.47
2016,10,14,15,59,989.47
2016,10,14,16,00,989.98
2016,10,14,16,01,989.98
2016,10,14,16,02,989.98
2016,10,14,16,03,989.98
2016,10,14,16,04,989.98
2016,10,14,16,05,989.98
2016,10,14,16,06,989.98
2016,10,14,16,07,989.98
2016,10,14,16,08,989.98
2016,10,14,16,09,989.98
2016,10,14,16,10,989.98
2016,10,14,16,11,989.98
2016,10,14,16,12,989.98
2016,10,14,16,13,989.98
2016,10,14,16,14,989.98
2016,10,14,16,15,990.49
2016,10,14,16,16,990.52
2016,10,14,16,17,990.52
2016,10,14,16,18,990.52
2016,10,14,16,19,990.52
2016,10,14,16,20,990.52
2016,10,14,16,21,990.52
2016,10,14,16,22,990.52
2016,10,14,16,23,990.52
2016,10,14,16,24,990.52
2016,10,14,16,25,990.52
2016,10,14,16,26,990.52
2016,10,14,16,27,990.52
2016,10,14,16,28,990.52
2016,10,14,16,29,990.52
2016,10,14,16,30,990.75
2016,10,14,16,31,990.76
2016,10,14,16,32,990.76
2016,10,14,16,33,990.76
2016,10,14,16,34,990.76
2016,10,14,16,35,990.76
2016,10,14,16,36,990.76